DW6016 Weather Reports


time (UTC)temp
F
wind
direction
speed
knots
gust
knots
rain 1hr
in
rain 24hr
in
rain mn
in
humidity
%
barometer
mb
20260504044038 75 311 0.0 0.0 0.00 0.00 0.00 45 1008.3
20260504043534 75 307 0.0 0.9 0.00 0.00 0.00 48 1008.2
20260504043032 75 285 0.0 0.0 0.00 0.00 0.00 48 1008.1
20260504042529 75 291 0.0 0.0 0.00 0.00 0.00 49 1008.3
20260504042026 75 290 0.0 0.9 0.00 0.00 0.00 48 1008.1
20260504041522 75 301 0.0 0.0 0.00 0.00 0.00 48 1008.0
20260504041018 76 304 0.0 0.0 0.00 0.00 0.00 47 1008.1
20260504040516 76 302 0.0 0.0 0.00 0.00 0.00 47 1008.1
20260504040012 76 302 0.0 0.0 0.00 0.00 0.00 46 1008.1
20260504035509 77 291 0.0 0.0 0.00 0.00 0.00 46 1008.0
20260504035005 77 295 0.0 0.0 0.00 0.00 0.00 45 1007.7
20260504034503 77 281 0.0 0.0 0.00 0.00 0.00 45 1007.9
20260504034000 78 293 0.0 0.0 0.00 0.00 0.00 44 1007.6
20260504033457 78 313 0.0 0.0 0.00 0.00 0.00 43 1007.7
20260504032955 78 283 0.0 0.0 0.00 0.00 0.00 43 1007.4
20260504032452 79 283 0.9 0.9 0.00 0.00 0.00 43 1007.5
20260504031948 80 283 0.0 0.0 0.00 0.00 0.00 42 1007.6
20260504031445 80 303 0.0 0.9 0.00 0.00 0.00 42 1007.6
20260504030942 80 298 0.0 0.0 0.00 0.00 0.00 40 1007.3
20260504030439 80 313 0.0 0.9 0.00 0.00 0.00 40 1007.5
20260504025934 81 303 0.0 0.0 0.00 0.00 0.00 39 1007.6
20260504025432 82 297 0.0 0.9 0.00 0.00 0.00 37 1007.5
20260504024929 82 299 0.0 0.0 0.00 0.00 0.00 36 1007.3
20260504024426 83 295 0.0 0.0 0.00 0.00 0.00 36 1007.4
20260504023923 84 279 0.9 0.9 0.00 0.00 0.00 34 1007.5
20260504023419 84 293 0.0 0.0 0.00 0.00 0.00 35 1007.5
20260504022915 85 341 0.0 0.0 0.00 0.00 0.00 35 1007.3
20260504022412 86 284 0.0 0.0 0.00 0.00 0.00 33 1007.6
20260504021908 86 317 0.0 0.0 0.00 0.00 0.00 34 1007.5
20260504021405 87 308 0.9 0.9 0.00 0.00 0.00 33 1007.6
20260504020903 88 308 0.9 0.9 0.00 0.00 0.00 32 1007.6
20260504020359 88 277 0.9 0.9 0.00 0.00 0.00 31 1007.8
20260504015855 89 299 0.9 0.9 0.00 0.00 0.00 33 1007.8
20260504015351 89 302 0.0 0.9 0.00 0.00 0.00 31 1007.8
20260504014847 89 318 0.0 0.0 0.00 0.00 0.00 32 1008.1
20260504014343 88 294 0.0 0.0 0.00 0.00 0.00 32 1008.0
20260504013841 87 308 1.7 1.7 0.00 0.00 0.00 31 1007.6
20260504013339 87 314 0.9 1.7 0.00 0.00 0.00 32 1007.5
20260504012836 87 294 0.9 0.9 0.00 0.00 0.00 31 1007.6
20260504012333 88 294 0.0 0.9 0.00 0.00 0.00 32 1007.7
20260504011831 88 303 0.0 0.0 0.00 0.00 0.00 30 1007.7
20260504011327 88 308 0.0 0.0 0.00 0.00 0.00 33 1007.6
20260504010823 88 305 0.9 1.7 0.00 0.00 0.00 31 1007.7
20260504010319 88 316 0.9 0.9 0.00 0.00 0.00 30 1007.8
20260504005815 88 292 1.7 2.6 0.00 0.00 0.00 29 1007.7
20260504005312 88 295 0.0 0.0 0.00 0.00 0.00 30 1007.8
20260504004810 88 298 0.0 0.0 0.00 0.00 0.00 31 1008.0
20260504004308 89 306 0.9 0.9 0.00 0.00 0.00 29 1007.6
20260504003804 89 294 1.7 2.6 0.00 0.00 0.00 28 1007.8
20260504003301 88 295 0.0 0.9 0.00 0.00 0.00 30 1007.7
20260504002757 89 305 1.7 1.7 0.00 0.00 0.00 31 1007.8
20260504002254 89 334 0.9 1.7 0.00 0.00 0.00 30 1007.9
20260504001752 89 318 0.0 0.9 0.00 0.00 0.00 29 1007.8
20260504001249 89 146 2.6 4.3 0.00 0.00 0.00 29 1007.9
20260504000746 89 306 0.0 0.0 0.00 0.00 0.00 30 1008.0
20260504000243 89 318 0.9 1.7 0.00 0.00 0.00 30 1007.8
20260503235741 89 300 1.7 1.7 0.00 0.00 0.00 29 1008.0
20260503235237 89 302 0.9 0.9 0.00 0.00 0.00 32 1007.8
20260503234735 89 281 0.9 0.9 0.00 0.00 0.00 28 1008.0
20260503234233 89 299 0.9 0.9 0.00 0.00 0.00 28 1008.1
20260503233730 89 336 0.0 0.9 0.00 0.00 0.00 28 1008.1
20260503233225 89 321 0.9 1.7 0.00 0.00 0.00 29 1008.2
20260503232723 89 294 0.0 0.9 0.00 0.00 0.00 29 1008.0
20260503232220 89 325 1.7 1.7 0.00 0.00 0.00 28 1008.4
20260503231718 89 30 2.6 2.6 0.00 0.00 0.00 28 1008.4
20260503231215 89 287 0.0 0.9 0.00 0.00 0.00 28 1008.3
20260503230711 89 131 1.7 1.7 0.00 0.00 0.00 27 1008.4
20260503230208 89 313 0.0 0.0 0.00 0.00 0.00 27 1008.4
20260503225706 89 316 0.9 0.9 0.00 0.00 0.00 29 1008.6
20260503225206 89 9 1.7 1.7 0.00 0.00 0.00 28 1008.7
20260503224703 89 286 2.6 7.0 0.00 0.00 0.00 27 1008.8
20260503224201 89 335 0.0 0.0 0.00 0.00 0.00 30 1008.6
20260503223658 89 286 0.0 0.9 0.00 0.00 0.00 32 1008.9
20260503223155 89 287 1.7 1.7 0.00 0.00 0.00 28 1008.9
20260503222652 88 300 1.7 1.7 0.00 0.00 0.00 31 1009.0
20260503222150 88 297 0.0 0.9 0.00 0.00 0.00 32 1009.3
20260503221648 88 294 0.0 0.0 0.00 0.00 0.00 31 1009.2
20260503221145 88 310 0.9 0.9 0.00 0.00 0.00 30 1009.3
20260503220641 88 298 1.7 1.7 0.00 0.00 0.00 31 1009.2
20260503220138 88 301 1.7 1.7 0.00 0.00 0.00 31 1009.4
20260503215636 88 303 0.0 0.9 0.00 0.00 0.00 32 1009.7
20260503215132 88 313 0.9 0.9 0.00 0.00 0.00 30 1009.4
20260503214631 88 296 0.0 0.0 0.00 0.00 0.00 35 1009.7
20260503214126 87 300 0.9 0.9 0.00 0.00 0.00 36 1009.5
20260503213626 87 292 0.0 0.9 0.00 0.00 0.00 37 1009.8
20260503213122 87 284 0.0 0.0 0.00 0.00 0.00 35 1009.8
20260503212620 87 263 1.7 2.6 0.00 0.00 0.00 37 1009.7
20260503212117 87 308 0.0 0.0 0.00 0.00 0.00 40 1010.0
20260503211614 87 305 0.9 1.7 0.00 0.00 0.00 37 1010.0
20260503211110 86 293 0.9 1.7 0.00 0.00 0.00 36 1010.0
20260503210606 86 261 0.9 1.7 0.00 0.00 0.00 37 1010.1
20260503205559 86 220 0.9 1.7 0.00 0.00 0.00 39 1010.4
20260503205055 86 317 2.6 2.6 0.00 0.00 0.00 40 1010.4
20260503204552 85 314 0.0 0.9 0.00 0.00 0.00 39 1010.5
20260503204049 86 296 0.9 0.9 0.00 0.00 0.00 40 1010.4
20260503203546 86 309 2.6 4.3 0.00 0.00 0.00 39 1010.5
20260503203043 86 225 0.9 0.9 0.00 0.00 0.00 41 1010.5
20260503202541 85 271 0.9 0.9 0.00 0.00 0.00 39 1010.5
20260503202039 86 145 1.7 1.7 0.00 0.00 0.00 41 1010.7
20260503201537 84 140 1.7 1.7 0.00 0.00 0.00 41 1011.0
20260503201034 85 292 0.9 0.9 0.00 0.00 0.00 42 1010.6
20260503200530 84 289 0.0 0.0 0.00 0.00 0.00 43 1010.7
20260503200027 84 138 1.7 2.6 0.00 0.00 0.00 44 1010.8
20260503195524 85 290 0.9 0.9 0.00 0.00 0.00 43 1010.8
20260503195021 84 301 0.9 1.7 0.00 0.00 0.00 43 1011.0
20260503194518 84 273 0.9 0.9 0.00 0.00 0.00 45 1011.4
20260503194018 82 295 0.9 0.9 0.00 0.00 0.00 47 1011.2
20260503193515 82 286 2.6 2.6 0.00 0.00 0.00 45 1011.3
20260503193010 83 313 0.9 1.7 0.00 0.00 0.00 44 1011.4
20260503192506 83 110 0.9 0.9 0.00 0.00 0.00 44 1011.4
20260503192002 82 273 0.0 0.9 0.00 0.00 0.00 48 1011.5
20260503191459 82 257 0.9 0.9 0.00 0.00 0.00 47 1011.4
20260503190955 80 284 0.0 0.9 0.00 0.00 0.00 49 1011.6
20260503190453 81 294 0.9 0.9 0.00 0.00 0.00 47 1011.6
20260503185950 82 10 0.9 0.9 0.00 0.00 0.00 47 1011.7
20260503185446 80 267 0.9 0.9 0.00 0.00 0.00 48 1011.7
20260503184946 79 262 0.9 0.9 0.00 0.00 0.00 51 1011.9
20260503184443 79 122 0.9 0.9 0.00 0.00 0.00 50 1011.8
20260503183939 79 282 0.0 0.0 0.00 0.00 0.00 50 1011.9
20260503183436 78 184 0.9 0.9 0.00 0.00 0.00 51 1012.1
20260503182933 78 311 0.0 0.9 0.00 0.00 0.00 53 1012.2
20260503182432 77 289 0.9 0.9 0.00 0.00 0.00 51 1012.3
20260503181929 77 285 0.9 1.7 0.00 0.00 0.00 53 1012.1
20260503181426 77 164 0.9 1.7 0.00 0.00 0.00 53 1012.3
20260503180921 77 174 0.9 1.7 0.00 0.00 0.00 53 1012.3
20260503180420 76 307 0.9 0.9 0.00 0.00 0.00 53 1012.4
20260503175916 76 315 1.7 1.7 0.00 0.00 0.00 56 1012.5
20260503175415 75 277 0.0 0.9 0.00 0.00 0.00 58 1012.2
20260503174910 75 86 1.7 2.6 0.00 0.00 0.00 57 1012.4
20260503174408 75 141 1.7 1.7 0.00 0.00 0.00 57 1012.5
20260503173903 74 276 0.9 0.9 0.00 0.00 0.00 57 1012.4
20260503173359 73 296 0.9 0.9 0.00 0.00 0.00 60 1012.8
20260503172856 73 177 0.9 1.7 0.00 0.00 0.00 59 1012.4
20260503172354 73 308 0.9 0.9 0.00 0.00 0.00 61 1012.9
20260503171849 74 301 1.7 1.7 0.00 0.00 0.00 60 1012.8
20260503171346 73 298 0.0 0.0 0.00 0.00 0.00 59 1012.8
20260503170844 73 291 0.9 0.9 0.00 0.00 0.00 62 1012.7
20260503170340 72 214 0.0 0.9 0.00 0.00 0.00 62 1012.8
20260503150732 58 297 0.9 0.9 0.00 0.00 0.00 99 1013.3
20260503150229 57 303 0.0 0.0 0.00 0.00 0.00 99 1013.3
20260503140153 52 299 0.0 0.0 0.00 0.00 0.00 99 1013.0
20260503131117 50 299 0.0 0.0 0.00 0.00 0.00 99 1012.9
20260503130614 50 299 0.0 0.0 0.00 0.00 0.00 99 1012.8
20260503130112 50 299 0.0 0.0 0.00 0.00 0.00 99 1012.6
20260503110504 51 299 0.0 0.0 0.00 0.00 0.00 99 1013.1
20260503090350 53 299 0.0 0.0 0.00 0.00 0.00 99 1013.5
20260503081317 54 298 0.0 0.0 0.00 0.00 0.00 99 1013.5
20260503080814 54 299 0.0 0.0 0.00 0.00 0.00 99 1013.4
20260503080311 54 299 0.0 0.0 0.00 0.00 0.00 99 1013.4
20260503072748 55 299 0.0 0.0 0.00 0.00 0.00 99 1013.5
20260503072245 55 299 0.0 0.0 0.00 0.00 0.00 99 1013.6
20260503071741 55 299 0.0 0.0 0.00 0.00 0.00 99 1013.7
20260503071238 55 299 0.0 0.0 0.00 0.00 0.00 98 1013.5
20260503070734 55 299 0.0 0.0 0.00 0.00 0.00 98 1013.6
20260503070232 55 299 0.0 0.0 0.00 0.00 0.00 97 1013.6
20260503060157 58 299 0.0 0.0 0.00 0.00 0.00 92 1013.5
20260503054644 59 299 0.0 0.0 0.00 0.00 0.00 91 1013.7
20260503054141 59 299 0.0 0.0 0.00 0.00 0.00 90 1013.4
20260503053639 59 299 0.0 0.0 0.00 0.00 0.00 90 1013.4
20260503053138 59 299 0.0 0.0 0.00 0.00 0.00 89 1013.4
20260503052633 60 299 0.0 0.0 0.00 0.00 0.00 89 1013.4
20260503052130 60 303 0.9 0.9 0.00 0.00 0.00 88 1013.3
20260503051625 60 303 0.0 0.0 0.00 0.00 0.00 87 1013.5
20260503051123 61 303 0.0 0.0 0.00 0.00 0.00 86 1013.4
20260503050620 61 303 0.0 0.0 0.00 0.00 0.00 86 1013.5
20260503050116 61 303 0.0 0.0 0.00 0.00 0.00 85 1013.2
20260503045614 62 303 0.0 0.9 0.00 0.00 0.00 84 1013.7
20260503045111 62 299 0.9 0.9 0.00 0.00 0.00 83 1013.4
20260503044607 62 308 0.9 0.9 0.00 0.00 0.00 83 1013.7